Temperature
2 1 0 -0 -1 -1 -1 -1 -1 -2 -2 -3 -3 -2 -3 -3 -4 -4 -3 -2 -2 -2 -3 -3 -2 -1 -1 0 0 1 1 2 3 5 7 9 9 10 10 11 11 12 12
2 1 -0 -1 -2 -3 -3 -3 -3 -3 -4 -5 -4 -4 -4 -4 -4 -5 -5 -4 -4 -5 -5 -5 -5 -4 -3 -2 -2 -1 -1 -0 1 2 4 8 10 10 10 11 11 11 12
1 0 -1 -2 -3 -4 -4 -4 -3 -4 -5 -5 -5 -5 -5 -5 -5 -5 -6 -6 -6 -6 -6 -5 -5 -5 -5 -5 -4 -4 -4 -3 -1 0 2 5 9 10 11 11 11 11 11
1 -0 -2 -3 -4 -5 -5 -5 -5 -5 -6 -6 -7 -7 -7 -7 -7 -7 -7 -6 -6 -6 -6 -6 -6 -6 -6 -6 -5 -5 -5 -4 -3 -2 0 2 4 6 9 10 10 10 11
1 -1 -2 -4 -5 -6 -6 -6 -6 -6 -6 -7 -8 -8 -8 -8 -8 -8 -8 -7 -7 -7 -7 -7 -7 -6 -6 -6 -6 -5 -5 -4 -4 -3 -2 -1 2 4 5 8 10 10 10
0 -2 -3 -4 -5 -6 -7 -7 -7 -7 -7 -7 -8 -9 -9 -9 -9 -9 -9 -9 -8 -7 -7 -7 -7 -7 -7 -6 -6 -5 -5 -4 -4 -4 -3 -2 -1 2 4 6 8 9 10
-1 -2 -4 -5 -6 -7 -8 -8 -8 -8 -8 -8 -9 -9 -9 -10 -10 -10 -10 -9 -9 -9 -8 -8 -8 -7 -7 -6 -6 -5 -5 -4 -4 -3 -3 -3 -2 -0 2 4 6 7 9
-2 -3 -4 -6 -7 -8 -8 -8 -9 -9 -10 -10 -10 -10 -10 -11 -11 -11 -11 -10 -10 -10 -9 -9 -8 -8 -7 -6 -6 -6 -5 -5 -4 -3 -3 -3 -2 -1 0 2 4 6 7
-3 -4 -5 -6 -7 -8 -8 -9 -10 -10 -11 -11 -11 -11 -11 -11 -11 -11 -11 -11 -11 -10 -10 -9 -9 -8 -7 -7 -6 -6 -6 -5 -4 -3 -3 -2 -2 -1 0 1 3 4 6
-3 -4 -5 -6 -8 -8 -9 -9 -10 -11 -11 -11 -12 -12 -12 -12 -12 -12 -12 -12 -11 -11 -10 -10 -9 -9 -8 -7 -7 -6 -6 -5 -4 -3 -2 -2 -1 -0 1 2 2 3 4
-4 -5 -6 -7 -8 -9 -9 -9 -10 -10 -11 -12 -12 -12 -12 -12 -13 -13 -13 -12 -12 -12 -11 -10 -10 -9 -8 -8 -7 -7 -7 -6 -5 -3 -2 -1 -0 0 1 2 2 3 3
-4 -5 -6 -7 -8 -9 -10 -10 -10 -10 -11 -11 -12 -12 -12 -13 -13 -13 -13 -13 -13 -12 -12 -11 -10 -10 -9 -8 -7 -7 -7 -6 -5 -4 -2 -1 -1 0 1 1 2 3 3
-4 -6 -7 -8 -9 -9 -10 -10 -10 -10 -11 -11 -12 -12 -13 -13 -13 -13 -13 -13 -13 -13 -12 -12 -11 -10 -9 -8 -8 -7 -7 -6 -6 -5 -4 -2 -2 -1 -0 0 1 2 2
-5 -6 -7 -8 -9 -10 -10 -10 -11 -11 -11 -12 -12 -12 -13 -13 -14 -13 -14 -13 -13 -13 -13 -12 -12 -11 -10 -8 -8 -7 -7 -7 -6 -6 -5 -4 -3 -2 -1 -0 0 1 2
-6 -7 -8 -9 -9 -10 -10 -10 -11 -11 -12 -12 -12 -12 -13 -13 -13 -14 -14 -14 -14 -13 -13 -12 -12 -11 -10 -9 -8 -7 -7 -7 -7 -6 -6 -5 -4 -3 -2 -1 -0 0 1
-6 -7 -8 -9 -10 -10 -10 -10 -11 -11 -12 -12 -12 -13 -13 -13 -13 -14 -14 -14 -14 -14 -13 -13 -13 -12 -11 -10 -9 -8 -8 -8 -7 -7 -7 -6 -5 -3 -3 -2 -1 -1 0
-7 -8 -9 -10 -10 -9 -9 -10 -11 -11 -12 -12 -12 -13 -13 -13 -14 -14 -14 -14 -14 -14 -14 -14 -13 -13 -12 -10 -9 -9 -9 -8 -8 -8 -7 -7 -6 -5 -4 -3 -2 -2 -1
-8 -8 -9 -9 -9 -9 -10 -10 -10 -11 -12 -12 -12 -13 -13 -14 -14 -14 -15 -15 -15 -14 -14 -14 -13 -13 -12 -11 -10 -9 -9 -9 -8 -8 -8 -8 -7 -6 -5 -4 -3 -3 -3
-8 -8 -8 -8 -9 -9 -10 -10 -11 -11 -12 -12 -13 -13 -14 -14 -15 -15 -14 -14 -15 -14 -14 -14 -13 -13 -12 -11 -9 -9 -9 -9 -9 -8 -8 -8 -8 -8 -7 -6 -5 -5 -5
-7 -7 -8 -8 -9 -9 -10 -10 -11 -11 -12 -12 -12 -13 -14 -15 -15 -15 -15 -15 -15 -14 -14 -14 -13 -13 -12 -11 -10 -10 -9 -9 -9 -9 -9 -9 -9 -8 -8 -8 -8 -7 -7
-7 -7 -7 -8 -9 -9 -10 -10 -11 -11 -11 -12 -12 -13 -14 -14 -15 -15 -15 -15 -15 -14 -14 -14 -13 -13 -13 -12 -11 -10 -10 -10 -10 -10 -10 -10 -10 -9 -9 -9 -10 -10 -9
-7 -7 -7 -8 -9 -10 -10 -10 -11 -11 -11 -11 -12 -12 -13 -14 -15 -15 -15 -15 -15 -14 -14 -14 -13 -13 -13 -12 -12 -11 -11 -10 -10 -10 -11 -11 -10 -10 -10 -10 -10 -10 -10
-7 -7 -7 -8 -9 -10 -10 -10 -11 -11 -11 -11 -12 -12 -12 -13 -14 -14 -14 -14 -14 -14 -14 -14 -13 -13 -13 -13 -12 -12 -12 -11 -11 -12 -12 -12 -11 -11 -11 -11 -11 -10 -10
-7 -7 -8 -8 -9 -9 -10 -10 -10 -11 -11 -12 -12 -12 -13 -14 -14 -14 -14 -14 -14 -14 -13 -13 -13 -13 -13 -13 -13 -13 -13 -12 -12 -13 -13 -13 -12 -12 -12 -12 -11 -11 -12
-7 -7 -8 -8 -9 -9 -10 -10 -10 -10 -11 -12 -12 -12 -13 -14 -14 -14 -14 -14 -14 -14 -14 -14 -14 -14 -13 -13 -13 -13 -13 -14 -14 -13 -13 -13 -13 -13 -13 -13 -13 -13 -13
-7 -7 -8 -8 -9 -9 -9 -9 -10 -10 -11 -12 -12 -13 -14 -13 -13 -14 -14 -14 -14 -14 -15 -15 -14 -14 -14 -13 -14 -14 -14 -14 -14 -14 -14 -14 -14 -14 -14 -14 -14 -14 -14
Wind_Speed
16 16 17 19 21 20 21 23 22 21 18 15 16 16 16 14 13 17 22 23 23 22 20 17 17 16 15 16 17 16 17 14 13 13 14 15 18 18 15 14 14 15 15
18 17 17 17 20 19 20 21 21 21 19 15 15 15 16 14 15 17 19 22 24 23 19 18 15 16 15 17 17 17 14 14 12 9 10 10 13 15 15 15 14 15 13
17 17 17 18 20 19 19 19 21 21 20 21 17 16 14 14 14 16 15 21 24 23 21 20 18 17 15 15 17 16 16 15 15 11 7 7 8 11 12 14 14 14 13
16 18 17 18 19 19 17 19 20 20 20 21 17 19 15 15 17 16 15 21 22 23 23 21 20 17 15 16 16 15 15 15 14 13 11 11 9 7 9 9 10 11 12
17 18 16 16 17 18 17 17 19 19 20 20 19 18 17 16 15 17 19 19 19 22 23 23 21 18 15 17 17 17 16 13 14 13 14 15 13 14 9 12 11 9 9
16 16 14 15 15 17 16 17 19 19 19 19 19 19 20 20 20 20 19 18 16 17 22 24 22 20 17 18 18 17 18 15 16 14 13 13 11 11 10 11 14 14 12
15 15 15 16 17 18 17 17 19 19 20 20 20 20 20 20 20 19 19 19 17 17 20 22 21 19 20 20 18 18 18 17 17 16 14 14 14 14 14 13 14 16 14
14 14 15 15 16 17 17 17 18 19 19 19 20 19 19 16 15 19 18 18 16 17 21 23 22 22 22 21 18 17 18 16 16 17 17 14 14 14 14 13 12 13 14
14 14 14 14 16 17 17 18 18 19 18 19 19 19 18 18 18 19 18 16 17 19 23 23 21 20 21 20 19 15 18 17 17 16 17 16 14 14 14 14 13 12 12
12 15 14 14 15 16 17 17 18 18 18 18 17 16 18 17 18 17 19 20 20 22 22 21 20 20 19 18 18 17 17 18 17 15 16 16 13 13 12 13 13 12 12
13 15 14 14 15 16 16 17 18 18 17 17 17 18 17 17 18 17 19 19 20 21 21 22 21 21 20 19 18 17 19 18 17 16 14 13 12 10 9 10 11 12 11
14 15 14 15 15 16 16 16 17 17 17 17 17 17 17 17 18 18 19 21 20 21 20 20 21 21 21 20 20 18 18 17 17 17 15 10 7 8 7 8 10 11 11
14 14 14 14 15 16 15 16 16 16 16 17 17 17 17 18 19 19 19 20 20 20 20 19 20 20 20 21 21 17 17 16 16 16 15 13 11 10 8 9 9 10 10
15 14 14 14 15 15 15 16 16 16 16 16 17 17 18 18 19 19 19 20 19 20 20 20 19 20 20 20 22 14 14 15 16 16 15 14 13 12 9 7 8 7 8
15 14 15 15 16 16 16 15 16 16 16 16 16 17 17 18 18 18 19 19 19 19 19 20 20 20 18 19 24 11 11 13 15 16 15 14 18 20 12 4 5 6 4
14 14 15 16 16 17 16 16 16 16 16 16 16 16 17 18 18 18 18 19 19 19 19 19 20 20 18 28 32 18 11 12 13 14 14 13 15 19 22 23 22 16 6
14 14 15 15 16 16 16 16 16 16 16 16 16 16 17 18 18 18 18 18 18 18 19 19 20 20 22 31 33 23 13 12 12 13 12 12 14 16 14 19 24 25 28
13 13 13 14 15 15 15 15 15 16 16 16 16 17 17 18 18 18 18 17 16 16 17 18 19 19 21 30 33 23 11 11 13 13 12 13 16 17 16 15 17 18 21
11 11 12 13 14 14 15 15 15 15 16 16 17 18 18 18 18 18 18 16 16 16 16 16 18 19 20 27 32 17 10 10 13 14 14 16 17 24 24 18 17 17 17
10 11 12 13 13 14 15 15 16 16 16 17 18 19 18 18 18 18 18 16 16 16 16 16 16 17 17 24 28 21 11 11 11 11 14 22 23 25 25 18 17 16 15
10 11 12 12 12 13 14 15 16 16 17 18 18 19 18 18 17 16 16 16 15 15 15 15 15 15 17 22 26 25 14 11 10 10 11 15 25 26 26 22 17 17 14
11 12 12 13 13 13 14 15 16 16 17 18 18 18 18 16 14 16 15 15 14 13 13 13 14 12 14 18 20 24 23 18 10 9 10 14 22 24 25 20 20 21 16
10 10 12 14 13 13 13 15 16 17 18 18 18 17 17 16 15 15 15 14 13 11 11 11 10 11 11 14 17 17 20 22 14 12 17 19 20 19 17 21 22 18 13
9 10 12 13 14 14 14 14 15 16 17 17 17 16 15 16 16 13 12 12 12 12 12 10 8 9 10 11 10 10 11 13 12 10 13 17 18 16 16 16 14 13 12
9 10 11 13 14 15 15 15 15 16 17 17 16 16 14 15 15 14 12 13 11 12 13 10 8 8 9 11 16 13 11 9 9 7 8 9 10 10 10 10 11 11 11
9 10 12 13 14 14 15 15 16 16 17 15 16 13 13 14 13 13 13 15 15 17 16 15 12 9 11 13 15 15 15 15 13 9 8 9 9 9 9 9 9 9 9
Wind_Direction
7 6 2 1 358 357 357 354 350 348 350 351 350 346 342 341 341 344 341 341 340 339 339 337 335 335 332 329 328 329 322 318 315 304 286 266 253 248 249 248 248 241 235
0 358 356 358 357 355 355 352 351 347 348 350 348 343 336 337 340 340 339 338 336 336 336 335 333 332 330 329 330 330 324 318 320 316 305 276 260 245 242 243 240 239 235
354 352 354 357 355 352 352 351 350 347 348 351 347 343 340 339 342 341 339 336 331 331 331 330 331 329 329 326 325 323 320 317 312 300 293 289 272 277 249 239 239 235 232
353 353 353 353 352 349 347 348 348 347 348 349 348 346 342 340 337 336 333 333 331 331 328 328 329 326 325 321 318 316 310 307 304 304 286 286 299 294 277 248 232 234 235
351 350 349 348 347 347 345 348 348 348 349 348 347 344 341 338 334 335 334 335 334 333 329 329 329 327 324 320 315 310 303 297 292 290 290 291 288 274 272 268 260 242 233
346 344 343 345 347 348 346 349 349 350 350 349 347 344 340 339 337 338 337 336 333 332 330 330 328 325 322 318 313 308 301 293 286 282 278 276 275 274 272 266 260 259 248
342 343 344 347 347 347 347 349 350 348 348 347 346 342 340 338 336 337 335 334 331 329 327 328 324 322 319 316 311 311 307 296 286 279 275 270 267 271 273 274 268 261 256
343 344 345 346 345 346 346 347 346 345 344 344 343 340 340 337 334 334 331 329 327 325 324 324 321 320 319 317 313 314 314 305 293 280 273 270 267 266 264 264 266 262 253
344 344 344 345 346 346 347 345 343 341 341 341 340 339 339 337 334 332 330 329 326 324 325 324 323 321 319 319 317 314 318 315 304 286 271 264 263 260 259 256 252 255 253
347 346 345 346 346 346 345 345 343 340 338 339 339 337 337 337 334 332 331 330 327 326 325 326 326 323 322 323 319 316 318 319 312 299 276 262 259 256 253 250 244 239 248
347 346 346 347 346 346 345 344 343 341 341 340 339 338 338 338 336 334 332 330 328 327 328 328 327 327 327 329 322 319 324 325 322 317 296 270 264 264 263 256 245 236 232
344 345 346 346 345 345 344 343 341 340 340 339 338 339 339 339 339 337 334 332 331 330 330 330 329 330 331 331 326 320 331 332 332 331 328 315 302 299 299 289 264 244 231
342 345 347 345 344 342 340 339 339 338 338 339 339 340 341 341 340 338 336 335 335 334 334 334 332 331 332 329 328 322 334 337 337 339 341 342 339 326 310 306 288 259 238
343 345 344 342 341 338 337 337 337 337 337 337 339 340 340 339 338 337 336 337 337 337 336 336 335 333 332 329 329 327 339 343 343 344 348 351 353 341 311 300 299 272 237
344 345 341 339 338 337 336 335 334 334 335 335 337 337 336 335 335 335 337 338 338 338 337 338 338 338 336 333 335 336 348 350 348 349 351 353 4 2 6 358 329 299 258
341 341 339 336 336 335 333 332 329 331 330 331 331 331 333 333 333 332 336 338 337 338 339 339 339 340 339 336 344 353 353 354 354 355 356 358 8 12 20 36 38 33 22
338 338 336 333 331 329 327 325 326 325 326 327 326 326 328 330 330 330 333 336 335 336 336 337 339 340 339 339 345 351 353 360 3 1 3 12 15 23 24 35 39 34 36
333 332 331 327 324 323 322 321 322 322 323 322 322 324 325 324 324 327 328 332 334 332 332 334 338 340 340 340 342 346 357 7 9 7 18 27 26 30 32 37 43 40 36
328 327 326 323 322 323 324 322 322 324 324 322 322 322 322 321 322 323 322 329 332 330 330 333 337 341 342 344 345 7 13 12 10 17 34 41 39 36 36 35 38 38 30
330 328 325 324 325 327 326 323 324 327 328 327 322 320 321 323 323 322 323 326 327 329 330 331 336 343 346 347 354 18 15 15 10 16 37 46 46 41 40 38 37 37 29
332 331 328 328 329 328 326 324 326 329 328 324 321 321 324 327 325 324 325 323 324 326 329 332 336 345 350 352 359 16 14 11 13 20 35 45 49 47 43 42 39 39 37
335 335 330 327 328 330 329 325 328 329 326 323 323 326 328 328 326 327 327 326 326 326 328 331 337 347 351 355 2 16 22 23 22 34 40 45 49 49 48 45 40 39 39
333 334 328 324 329 335 332 326 327 328 326 325 328 329 328 328 330 331 331 331 330 327 324 321 329 344 348 353 7 24 30 32 35 45 56 53 50 47 45 44 42 38 36
334 334 329 328 332 335 333 329 328 330 327 328 330 330 330 331 334 336 336 333 331 328 330 340 346 345 346 357 17 26 29 35 42 39 42 46 48 48 45 43 41 40 40
335 333 331 328 330 332 332 333 335 334 332 331 332 332 332 332 336 339 339 339 342 346 355 353 346 347 348 11 33 37 34 38 49 50 45 41 38 38 39 42 42 39 37
334 331 331 330 330 331 331 335 338 337 335 335 336 334 334 338 342 343 344 350 352 354 1 1 359 355 0 29 42 43 44 44 46 50 47 42 38 35 32 33 36 36 35
Height
1617 1612 1607 1601 1595 1588 1582 1576 1569 1563 1556 1548 1542 1535 1530 1525 1521 1518 1514 1510 1505 1500 1495 1490 1485 1481 1477 1473 1469 1465 1462 1461 1460 1458 1456 1455 1455 1455 1456 1457 1458 1459 1461
1616 1612 1607 1601 1595 1588 1582 1575 1568 1562 1555 1549 1542 1536 1530 1525 1520 1515 1510 1506 1502 1498 1493 1488 1484 1479 1473 1469 1465 1461 1457 1456 1457 1455 1452 1449 1449 1447 1448 1449 1450 1451 1453
1615 1611 1605 1600 1593 1587 1580 1573 1566 1560 1554 1547 1540 1533 1528 1523 1517 1512 1507 1502 1499 1495 1491 1487 1482 1476 1471 1466 1461 1458 1454 1451 1450 1452 1451 1448 1443 1442 1441 1441 1442 1444 1446
1614 1610 1604 1598 1592 1586 1579 1572 1564 1558 1552 1545 1538 1532 1527 1522 1517 1512 1506 1500 1495 1491 1487 1483 1478 1473 1468 1463 1458 1455 1451 1448 1445 1443 1443 1443 1441 1440 1436 1436 1436 1437 1438
1613 1608 1602 1596 1591 1584 1578 1570 1563 1556 1550 1544 1538 1532 1527 1521 1516 1510 1504 1497 1491 1486 1482 1478 1474 1469 1464 1459 1454 1450 1447 1444 1441 1438 1436 1434 1434 1434 1434 1432 1432 1432 1432
1611 1606 1601 1596 1590 1583 1576 1569 1561 1555 1549 1542 1537 1531 1526 1519 1513 1507 1500 1493 1488 1482 1477 1473 1468 1464 1459 1454 1449 1444 1440 1437 1434 1431 1429 1428 1428 1427 1428 1427 1427 1428 1429
1609 1604 1600 1595 1589 1582 1575 1567 1560 1553 1547 1541 1535 1529 1524 1518 1512 1505 1498 1491 1485 1479 1473 1468 1463 1459 1454 1449 1444 1438 1433 1429 1426 1423 1421 1420 1420 1420 1421 1422 1422 1422 1423
1607 1603 1599 1593 1587 1580 1573 1565 1558 1551 1545 1538 1532 1527 1522 1516 1509 1503 1497 1490 1484 1477 1471 1465 1460 1455 1450 1444 1439 1433 1426 1421 1418 1415 1413 1411 1410 1412 1413 1415 1417 1417 1417
1606 1602 1597 1591 1585 1578 1570 1564 1556 1549 1543 1536 1530 1524 1519 1513 1506 1500 1494 1488 1481 1475 1468 1463 1457 1452 1446 1441 1435 1429 1422 1415 1411 1408 1406 1403 1402 1403 1405 1408 1411 1412 1410
1604 1600 1595 1589 1583 1576 1569 1562 1555 1548 1541 1535 1528 1522 1516 1510 1504 1497 1491 1485 1478 1472 1465 1459 1453 1448 1443 1437 1431 1426 1419 1412 1405 1402 1399 1397 1396 1397 1398 1400 1402 1404 1405
1602 1597 1592 1587 1581 1574 1567 1560 1553 1546 1539 1533 1526 1520 1513 1507 1501 1495 1488 1482 1475 1469 1462 1455 1449 1444 1439 1433 1428 1423 1416 1408 1401 1396 1393 1391 1391 1391 1392 1392 1394 1395 1397
1601 1595 1590 1584 1578 1571 1564 1557 1550 1543 1537 1531 1524 1518 1512 1505 1499 1492 1485 1479 1472 1466 1460 1453 1446 1440 1435 1429 1423 1419 1413 1405 1398 1392 1388 1386 1385 1384 1384 1385 1386 1387 1389
1598 1593 1587 1581 1574 1568 1561 1554 1547 1541 1535 1529 1523 1516 1510 1503 1497 1490 1483 1477 1470 1463 1457 1451 1444 1438 1432 1426 1419 1415 1410 1403 1396 1389 1384 1381 1379 1379 1378 1378 1378 1380 1382
1596 1591 1585 1578 1572 1565 1558 1551 1545 1539 1533 1527 1521 1515 1508 1502 1495 1488 1482 1475 1469 1462 1455 1448 1443 1436 1430 1423 1417 1412 1407 1400 1394 1388 1382 1379 1376 1375 1374 1373 1373 1374 1375
1594 1588 1582 1576 1570 1563 1556 1550 1543 1537 1531 1525 1519 1513 1506 1500 1493 1487 1481 1474 1468 1461 1454 1447 1441 1435 1428 1421 1416 1410 1405 1400 1394 1389 1384 1379 1377 1374 1372 1371 1370 1370 1370
1591 1586 1580 1574 1568 1561 1554 1548 1541 1535 1529 1523 1517 1511 1504 1498 1491 1485 1479 1473 1466 1460 1453 1447 1440 1434 1428 1421 1416 1410 1406 1401 1396 1391 1386 1382 1378 1374 1372 1370 1368 1367 1366
1589 1584 1578 1573 1566 1560 1553 1546 1539 1533 1527 1521 1515 1509 1502 1496 1490 1484 1478 1472 1465 1459 1452 1446 1440 1434 1427 1421 1416 1410 1407 1403 1398 1394 1389 1385 1381 1377 1373 1370 1368 1367 1365
1587 1581 1576 1570 1564 1558 1551 1545 1538 1532 1525 1519 1513 1506 1500 1493 1488 1482 1477 1471 1465 1458 1452 1446 1441 1435 1428 1421 1415 1411 1408 1404 1400 1396 1393 1389 1385 1381 1377 1373 1371 1369 1366
1585 1580 1574 1568 1562 1556 1550 1543 1537 1530 1524 1518 1511 1505 1498 1491 1485 1480 1475 1470 1464 1458 1452 1447 1441 1436 1429 1423 1417 1411 1410 1406 1403 1399 1396 1393 1389 1385 1380 1377 1375 1373 1372
1583 1578 1573 1567 1561 1555 1549 1542 1535 1529 1523 1516 1510 1503 1496 1490 1483 1478 1473 1468 1463 1458 1453 1447 1442 1437 1432 1425 1421 1416 1412 1409 1406 1403 1400 1397 1394 1390 1386 1383 1380 1378 1378
1582 1577 1572 1566 1560 1554 1547 1541 1535 1529 1522 1515 1508 1500 1494 1488 1482 1476 1471 1466 1461 1457 1452 1447 1443 1439 1433 1428 1423 1419 1415 1412 1410 1407 1405 1402 1399 1396 1392 1390 1388 1386 1384
1581 1576 1571 1565 1559 1552 1546 1540 1534 1528 1521 1513 1506 1499 1493 1486 1480 1475 1470 1465 1460 1456 1452 1447 1443 1439 1435 1431 1427 1423 1419 1415 1413 1411 1409 1407 1404 1401 1399 1396 1394 1392 1390
1580 1575 1570 1565 1558 1552 1546 1539 1533 1526 1519 1512 1505 1498 1492 1486 1480 1475 1469 1464 1460 1456 1451 1447 1444 1441 1437 1433 1430 1427 1423 1420 1416 1415 1413 1411 1408 1406 1404 1402 1401 1399 1396
1578 1574 1569 1563 1558 1552 1546 1540 1533 1525 1518 1510 1503 1497 1491 1485 1480 1475 1470 1464 1459 1455 1451 1447 1444 1442 1439 1435 1432 1429 1427 1424 1421 1418 1417 1415 1413 1411 1409 1408 1406 1404 1403
1578 1573 1567 1562 1557 1551 1545 1539 1532 1524 1516 1509 1503 1496 1490 1486 1480 1475 1470 1465 1460 1456 1452 1448 1445 1443 1441 1438 1435 1432 1429 1426 1424 1422 1421 1419 1417 1415 1414 1412 1411 1410 1409
1577 1572 1567 1562 1556 1550 1545 1539 1532 1525 1516 1508 1502 1496 1491 1486 1480 1475 1470 1466 1461 1456 1452 1448 1446 1444 1443 1440 1437 1434 1432 1429 1427 1425 1424 1422 1421 1419 1418 1416 1415 1414 1413